User: anonymous   Login
Location: Carbonear
(47.7333°N, 53.2500°W)
Time: 11:12:36
(UTC+00:00)
Language:

STRAND 1 - Orbit

View from above orbital plane
View from above orbital plane
View from above satellite
View from above satellite

Ground track
Ground track

The orbit data is extracted from the following two-line orbital elements,

1 39090U 13009E   24111.09755199  .00001421  00000-0  50357-3 0  9999
2 39090  98.3833 300.9840 0010003  69.4091 290.8167 14.35986844583926
Epoch (UTC): 20 April 2024 02:20:28
Eccentricity: 0.0010003
inclination: 98.3833°
perigee height: 764 km
apogee height: 779 km
right ascension of ascending node: 300.9840°
argument of perigee: 69.4091°
revolutions per day: 14.35986844
mean anomaly at epoch: 290.8167°
orbit number at epoch: 58392

The dashed part of the orbit path shows where the satellite is in the earth's shadow,  

DLR